Location: Austin
(30.3000°N, 97.7500°W)
Time: 10:39:17
(UTC-05:00)

CZ-2C R/B - Pass Details

Date: 26 May 2023
Orbit: 351 x 453 km, 35.0° (Epoch: 30 May)

Event Time Altitude Azimuth Distance (km) Brightness Sun altitude
Rises 22:49:26 0° 284° (WNW) 2,157 5.2 -25.9°
Reaches altitude 10° 22:51:33 10° 275° (W) 1,307 3.8 -26.2°
Enters shadow 22:51:39 11° 274° (W) 1,271 3.7 -26.2°
